Location: Castle
(40.7167°S, 175.9500°E)
Time: 04:31:55
(UTC+00:00)

DELTA 2 R/B (1) - Pass Details

Date: 04 August 2024
Orbit: 789 x 800 km, 39.6° (Epoch: 07 September)

Event Time Altitude Azimuth Distance (km) Brightness Sun altitude
Exits shadow 18:41:59 - 288° (WNW) 2,986 6.1 -7.3°
Reaches altitude 10° 18:43:39 10° 289° (WNW) 2,364 5.6 -7.0°
Maximum altitude 18:49:12 70° 11° (NNE) 846 3.9 -6.0°
Drops below altitude 10° 18:54:46 10° 94° (E) 2,366 7.4 -5.0°
Sets 18:57:16 0° 96° (E) 3,296 8.2 -4.6°
